[Iaude] MPEC V196: 2023 VS6 [a=1.63,e=0.50,i=9.8,H=21.4]
    mpec at marsden.cfa.harvard.edu 
    mpec at marsden.cfa.harvard.edu
       
    Sat Nov 11 08:50:31 EST 2023
    
    
  
M.P.E.C. 2023-V196                            Issued 2023 November 11, 13:48 UT
     The Minor Planet Electronic Circulars contain information on unusual
         minor planets, routine data on comets and natural satellites,
         and occasional editorial announcements.  They are published
    on behalf of Division F of the International Astronomical Union by the
          Minor Planet Center, Smithsonian Astrophysical Observatory,
                          Cambridge, MA 02138, U.S.A.
			  
             Prepared using the Tamkin Foundation Computer Network
                              MPC at CFA.HARVARD.EDU
            URL https://www.minorplanetcenter.net/    ISSN 1523-6714
                                    2023 VS6                                    
Observations:
     K23V06S* C2023 11 09.20817402 35 09.035+69 52 53.98         21.00GVEV196V00
     K23V06S  C2023 11 09.21373502 35 08.401+69 52 32.45         20.52GVEV196V00
     K23V06S  C2023 11 09.21928602 35 07.760+69 52 10.52         20.59GVEV196V00
     K23V06S  C2023 11 09.22483402 35 07.188+69 51 49.21         20.59GVEV196V00
     K23V06S  C2023 11 09.25432302 35 03.612+69 49 53.01         20.2 GVEV196H01
     K23V06S IC2023 11 09.25773602 35 03.254+69 49 39.51         19.9 GVEV196H01
     K23V06S  C2023 11 09.26660402 35 02.296+69 49 04.48         20.0 GVEV196H01
     K23V06S  C2023 11 09.28065902 35 00.792+69 48 08.74         20.7 GVEV196H01
     K23V06S KC2023 11 09.31835302 34 57.112+69 45 39.49         20.47GVEV196I52
     K23V06S KC2023 11 09.32028302 34 56.881+69 45 31.82         20.45GVEV196I52
     K23V06S KC2023 11 09.32221902 34 56.694+69 45 23.80         20.15GVEV196I52
     K23V06S KC2023 11 09.32415002 34 56.478+69 45 16.45         20.50GVEV196I52
     K23V06S 1C2023 11 10.05352 02 34 06.02 +68 57 19.2          20.8 VXEV196033
     K23V06S 1C2023 11 10.05444 02 34 05.94 +68 57 15.4          20.9 VXEV196033
     K23V06S 1C2023 11 10.05536 02 34 05.87 +68 57 12.1          20.9 VXEV196033
     K23V06S mC2023 11 10.16656002 34 04.940+68 50 07.30         20.32GVEV196I52
     K23V06S mC2023 11 10.16703702 34 04.811+68 50 05.50         20.96GVEV196I52
     K23V06S mC2023 11 10.16944102 34 04.606+68 49 56.86               VEV196I52
     K23V06S mC2023 11 10.16991202 34 04.642+68 49 54.84         20.34GVEV196I52
     K23V06S KB2023 11 10.19299 02 34 01.15 +68 48 26.8          19.7 GVEV196734
     K23V06S KB2023 11 10.20048 02 34 00.51 +68 47 58.4          20.2 GVEV196734
     K23V06S KB2023 11 10.21248 02 33 59.44 +68 47 12.7          19.5 GVEV196734
     K23V06S KB2023 11 10.21849 02 33 58.90 +68 46 49.2          19.4 GVEV196734
     K23V06S 1C2023 11 10.78489 02 33 27.80 +68 10 09.8          20.7 VXEV196033
     K23V06S 1C2023 11 10.78570 02 33 27.72 +68 10 07.0          20.5 VXEV196033
     K23V06S 1C2023 11 10.78650 02 33 27.63 +68 10 04.3          20.8 VXEV196033
     K23V06S HC2023 11 10.90970 02 33 18.67 +68 02 22.6                VEV196204
     K23V06S KC2023 11 10.93187 02 33 16.90 +68 00 58.3          20.6 GVEV196204
     K23V06S KC2023 11 10.95071702 33 16.013+67 59 42.97         19.7 GVEV196J95
     K23V06S KC2023 11 10.95373702 33 15.821+67 59 31.49         19.9 GVEV196J95
     K23V06S KC2023 11 10.95675002 33 15.506+67 59 19.75         19.8 GVEV196J95
     K23V06S KC2023 11 11.02077 02 33 09.66 +67 55 17.2          19.0 GVEV196104
     K23V06S KC2023 11 11.03714 02 33 08.41 +67 54 13.1          19.4 GVEV196104
     K23V06S KC2023 11 11.11247802 33 09.57 +67 49 28.5          20.4 GVEV196H21
     K23V06S KC2023 11 11.11527402 33 09.41 +67 49 18.0          20.1 GVEV196H21
     K23V06S KC2023 11 11.11806902 33 09.11 +67 49 07.7          20.2 GVEV196H21
     K23V06S KB2023 11 11.13948 02 33 07.80 +67 47 47.2          19.8 GXEV196H36
     K23V06S KB2023 11 11.15066 02 33 06.89 +67 47 05.4          20.4 GXEV196H36
     K23V06S KB2023 11 11.16131 02 33 05.95 +67 46 25.4          19.9 GXEV196H36
     K23V06S 1C2023 11 11.17861 02 32 59.63 +67 44 56.6          20.5 VXEV196033
     K23V06S 1C2023 11 11.17936 02 32 59.64 +67 44 54.3          20.5 VXEV196033
     K23V06S 1C2023 11 11.18010 02 32 59.53 +67 44 51.3          20.3 VXEV196033
     K23V06S 1C2023 11 11.18096 02 32 59.48 +67 44 48.2          20.4 VXEV196033
Observer details:
033 Karl Schwarzschild Observatory, Tautenburg.  Observers S. Melnikov, C.
    Hogner, F. Ludwig, M. Hartmann, B. Stecklum.  Measurer B. Stecklum.
    1.34-m f/3 Schmidt + CCD.
104 San Marcello Pistoiese.  Observers P. Bacci, M. Maestripieri.  Measurer P.
    Bacci.  0.60-m f/4.0 reflector + CCD.
204 Schiaparelli Observatory.  Observers L. Buzzi, G. Galli.  0.84-m f/3.5
    reflector + CCD.
734 Farpoint Observatory, Eskridge.  Observer .
H01 Magdalena Ridge Observatory, Socorro.  Observers W. H. Ryan, E. V. Ryan.
    Measurer W. H. Ryan.  2.4-m f/8.9 Ritchey-Chretien + CCD.
H21 Astronomical Research Observatory, Westfield.  Observer R. Holmes.
    Measurers T. Linder, R. Holmes, L. Horn.  0.76-m f/3.0 astrograph + CCD.
H36 Sandlot Observatory, Scranton.  Observer G. Hug.  0.56-m f/4.8 reflector +
    CMO.
I52 Steward Observatory, Mt. Lemmon Station.  Observer H. Groeller.  Measurers
    E. C. Beshore, D. Fay, J. B. Fazekas, D. C. Fuls, A. R. Gibbs, A. D.
    Grauer, H. Groeller, J. K. Hogan, R. A. Kowalski, S. M. Larson, G. J.
    Leonard, D. Rankin, R. L. Seaman, F. C. Shelly, K. W. Wierzchos.  1.0-m
    prime focus + CCD.
J95 Great Shefford.  Observer P. Birtwhistle.  0.41-m f/6.3 Schmidt-Cassegrain
    + CCD.
V00 Kitt Peak-Bok.  Observer K. W. Wierzchos.  Measurers M. J. Brucker, C. E.
    Woodward, D. Fay, J. B. Fazekas, D. C. Fuls, A. R. Gibbs, H. Groeller, J.
    K. Hogan, R. A. Kowalski, S. M. Larson, C. Lejoly, G. J. Leonard, R. A.
    Mastaler, R. S. McMillan, D. Rankin, R. L. Seaman, A. Serrano, F. C.
    Shelly, K. W. Wierzchos.  2.25-m reflector + 4x4K mosaic CCD.
Orbital elements:
2023 VS6                                                 Earth MOID = 0.1450 AU
Epoch 2023 Sept. 13.0 TT = JDT 2460200.5                Veres                   
M   4.20525              (2000.0)            P               Q                  
n   0.47357895     Peri.    2.21826     +0.82789848     +0.55180235             
a   1.6300758      Node   323.69918     -0.51717358     +0.68169732             
e   0.4950792      Incl.    9.77270     -0.21706128     +0.48041953             
P   2.08           H   21.48          G   0.15           U   8                  
Residuals in seconds of arc
231109 V00  0.3+  0.0     231110 I52  0.0   0.1-    231110 J95  0.6-  0.4-
231109 V00  0.0   0.1+    231110 I52  0.5-  0.1-    231111 104  0.2+  0.1+
231109 V00  0.3-  0.2-    231110 I52  0.4-  0.3+    231111 104  0.2+  0.3-
231109 V00  0.2-  0.1+    231110 I52  0.0   0.1+    231111 H21  0.4+  0.1+
231109 H01  0.0   0.0     231110 734  0.3-  0.3-    231111 H21 (0.7+  0.0 )
231109 H01  0.1+  0.0     231110 734  0.0   0.1+    231111 H21  0.2+  0.1+
231109 H01  0.1+  0.0     231110 734  0.2+  0.6+    231111 H36  0.9-  0.7+
231109 H01  0.1+  0.0     231110 734  0.3+  0.3+    231111 H36  1.1-  0.5+
231109 I52  0.2+  0.1-    231110 033  0.5-  0.1+    231111 H36  1.7-  0.2+
231109 I52  0.1+  0.0     231110 033  0.6-  0.3+    231111 033  0.2+  0.1-
231109 I52  0.2+  0.3-    231110 033  0.8-  0.6+    231111 033  0.4+  0.6+
231109 I52  0.1+  0.1+    231110 204  0.3-  0.0     231111 033  0.0   0.5+
231110 033  0.2+  0.3+    231110 204  0.1-  0.0     231111 033  0.0   0.7+
231110 033  0.2+  0.2+    231110 J95  0.4-  0.1-
231110 033  0.2+  0.5+    231110 J95  0.1-  0.1-
Ephemeris:
2023 VS6                 a,e,i = 1.63, 0.50, 10                  q = 0.8231
Date    TT    R. A. (2000) Decl.     Delta      r    Elong.  Phase     V
2023 10 12    13 55 26.7 +62 45 49   0.1514  0.9584    70.5   101.0    21.0
...
2023 10 27    04 42 36.3 +86 33 47   0.1932  1.0610   105.1    64.7    20.3
...
2023 11 04    02 45 23.3 +75 57 46   0.2271  1.1202   119.1    50.7    20.4
...
2023 11 10    02 34 12.1 +69 00 45   0.2570  1.1657   127.8    42.2    20.5
2023 11 11    02 33 12.9 +67 56 29   0.2624  1.1734   129.0    41.0    20.5
2023 11 12    02 32 22.9 +66 53 36   0.2679  1.1810   130.3    39.8    20.6
...
2023 11 18    02 29 45.5 +61 03 51   0.3035  1.2270   136.6    33.6    20.7
...
2023 11 26    02 30 25.6 +54 25 35   0.3584  1.2884   141.9    28.2    21.0
...
2023 12 11    02 39 03.0 +45 00 46   0.4863  1.4017   142.3    25.4    21.8
M. P. C. Staff               (C) Copyright 2023 MPC           M.P.E.C. 2023-V196
    
    
More information about the Iaude
mailing list